Regional Weather Roundup
Issued by NWS

Home | Current Version | Previous Version | Graphics & Text | Print | Product List | Glossary On
Versions: 1 2 3 4 5 6 7 8 9 10 11 12 13 14 15 16 17 18 19 20 21 22 23 24 25 26 27 28 29 30 31 32 33 34 35 36 37 38 39 40 41 42 43 44 45 46 47 48 49 50
000
ASUS45 KTFX 282204
RWRMT
MONTANA HOURLY WEATHER ROUNDUP
NATIONAL WEATHER SERVICE GREAT FALLS MT
404 PM MDT MON JUL 28 2014

NOTE: "FAIR" INDICATES FEW OR NO CLOUDS BELOW 12000 FEET WITH NO
SIGNIFICANT WEATHER AND/OR OBSTRUCTIONS TO VISIBILITY.

* THESE STATIONS ARE NOT UNDER NWS QUALITY CONTROL. THEY DO NOT
   REPORT WEATHER SUCH AS PRECIPITATION OR FOG.

MTZ001>007-043-282300-
WEST OF THE DIVIDE
CITY           SKY/WX    TMP DP  RH WIND       PRES   REMARKS
KALISPELL      SUNNY     86  48  27 N6        30.14F
MISSOULA       SUNNY     93  41  16 VRB7      30.14F
BUTTE          CLOUDY    84  37  19 E6        30.28F
MULLAN PASS    PTCLDY    81  45  28 VRB3      30.34F
* ESSEX        N/A       86  35  16 SE2        N/A
* LINCOLN      N/A       90  39  17 N5G17      N/A
* LOOKOUT PASS N/A       86  45  24 E3G8       N/A
* POLSON       N/A       90  48  24 S2G7       N/A
* RONAN APT    SUNNY     84  52  33 N/A        N/A
* SEELEY LAKE  N/A       90  39  17 NW5G12     N/A
* THOMP F APT  PTCLDY    81  32  17 S9G19      N/A
* YAAK HILL    N/A       97  45  17 SW2        N/A
$$

MTZ008-052>055-282300-
SOUTHWEST MONTANA
CITY           SKY/WX    TMP DP  RH WIND       PRES   REMARKS
BOZEMAN        CLOUDY    81  52  37 NE8       30.23F
DILLON         CLOUDY    81  37  21 S7        30.27F
W YELLOWSTONE  RAIN      82  28  14 W3        30.33F
* THREE FORKS  CLOUDY    84  48  29 N/A        N/A
* BOULDER HILL N/A       83  41  23 SW9G14     N/A
* MONIDA PASS  N/A       75  35  23 SW12G34    N/A
* RAYNOLDS PAS N/A       76  76 100 N11G17     N/A
* WHITEHALL    N/A       83  46  27 S3G8       N/A
* WISE RIVER   N/A       81  36  20 SE9        N/A
$$

MTZ009>010-012-014-046-048-049-054-282300-
EAST SLOPES AND CENTRAL MONTANA
CITY           SKY/WX    TMP DP  RH WIND       PRES   REMARKS
CUT BANK       SUNNY     90  43  19 S10       30.20F
GREAT FALLS    PTCLDY    90  39  17 NE6       30.17F
HELENA         CLOUDY    93  39  15 VRB7      30.15F
* CONRAD       SUNNY     88  54  31 NE5        N/A
* DEARBORN     N/A       88  46  23 VRB8G19    N/A
* EAST GLACIER N/A       80  45  29 S9         N/A
* SAINT MARY   N/A       86  45  24 E5G10      N/A
* SWEET GRASS  N/A       89  40  18 NE1G14     N/A
$$

MTZ011-013-016-021-035-040-045-047-050-051-282300-
NORTH CENTRAL MONTANA
CITY           SKY/WX    TMP DP  RH WIND       PRES   REMARKS
HAVRE          SUNNY     95  39  14 E17       30.14F
LEWISTOWN      PTCLDY    90  43  19 E13G21    30.22F
* CHESTER      N/A       89  40  18 E5G13      N/A
* DENTON       N/A       92  45  20 SE11G17    N/A
* GEYSER       N/A       90  43  19 N/A        N/A
* JUDITH GAP   N/A       86  45  24 S16        N/A
* LOMA         N/A       93  41  16 E9G16      N/A
$$

MTZ017>020-022>027-061-062-282300-
NORTHEAST MONTANA
CITY           SKY/WX    TMP DP  RH WIND       PRES   REMARKS
GLASGOW        SUNNY     90  45  21 VRB6G16   30.19F
GLENDIVE       SUNNY     82  46  28 CALM      30.24F
JORDAN         PTCLDY    90  37  15 VRB6G16   30.19F
SIDNEY         SUNNY     84  50  31 E5        30.24F
WOLF POINT     SUNNY     88  46  23 VRB5      30.20F
* BEAVER HILL  N/A       79  51  38 SE6G12     N/A
* CIRCLE       N/A       87  52  30 NE13       N/A
* LINDSAY DVD  N/A       82  50  33 NE9        N/A
$$

MTZ028>042-056>058-282300-
SOUTHCENTRAL AND SOUTHEAST MONTANA
CITY           SKY/WX    TMP DP  RH WIND       PRES   REMARKS
BAKER          SUNNY     86  46  25 SE9       30.26F
BILLINGS       PTCLDY    91  43  19 NE12G22   30.19F
LIVINGSTON     PTSUNNY   84  39  20 E12       30.23F
MILES CITY     PTCLDY    90  45  21 E12G23    30.19F
* LAUREL APT   PTCLDY    91  46  21 NE10       N/A
* ROUNDUP APT  PTCLDY    90  45  21 E10        N/A
* ALZADA       N/A       84  46  26 E7         N/A
* HYSHAM       N/A       89  48  24 E17G22     N/A
* LAME DEER    N/A       84  45  26 NE7G14     N/A
* REED POINT   N/A       88  47  24 E12G17     N/A
* ROSCOE HILL  N/A       79  43  28 E6         N/A
$$

REGIONAL REPORTS...DAKOTAS
CITY           SKY/WX    TMP DP  RH WIND       PRES   REMARKS
WILLISTON      PTSUNNY   81  52  37 E8        30.24F
DICKINSON      SUNNY     79  54  42 E10       30.26F
CROSBY         SUNNY     75  57  54 E3        30.26F
TIOGA          PTCLDY    75  55  50 CALM      30.30F
WATFORD CITY   SUNNY     77  52  42 E3        30.23F
BISMARCK       PTCLDY    75  50  42 CALM      30.28F
GRAND FORKS    PTCLDY    73  54  51 N7        30.22S
FARGO          PTSUNNY   73  52  48 N8        30.22F
BUFFALO SD     SUNNY     81  54  39 SE9       30.21F
RAPID CITY     SUNNY     81  55  41 E9        30.26F HI  81
$$

REGIONAL REPORTS...WYOMING/IDAHO/WASHINGTON
CITY           SKY/WX    TMP DP  RH WIND       PRES   REMARKS
GILLETTE       SUNNY     88  46  23 CALM      30.24F
SHERIDAN       SUNNY     90  46  22 VRB3      30.21F
YELLOWSTONE LA CLOUDY    77  32  19 VRB5      30.45F
SALMON         CLOUDY    84  41  22 NW7       30.14F
MULLAN PASS    PTCLDY    81  45  28 VRB3      30.34S
SAND POINT     SUNNY     90  50  25 E6        30.08F
SPOKANE        SUNNY     97  37  12 VRB3      30.08F

$$




USA.gov is the U.S. government's official web portal to all federal, state and local government web resources and services.